Wind_Speed
16 17 16 14 15 15 17 21 21 19 21 25 25 26 27 25 23 22 27 31 33 34 38 40 40 39 38 36 32 33 35 35 36 37 38 38 36 36 35 35 36 36 36 36 35 34 35 36 36
19 21 20 18 16 18 18 20 21 22 25 28 30 30 28 26 27 26 29 32 35 37 38 40 42 41 37 35 34 35 35 35 35 36 35 34 35 36 35 34 35 35 36 37 37 36 35 36 38
21 24 25 21 19 20 13 22 25 26 28 28 28 31 30 28 27 27 28 30 30 29 34 39 43 42 37 36 38 39 37 35 33 31 30 30 31 35 36 33 33 34 36 36 39 38 38 36 38
28 26 27 25 23 24 23 27 29 28 30 28 28 30 28 27 30 30 30 28 33 35 37 40 43 42 38 37 39 40 38 36 34 34 34 33 29 25 24 24 28 29 31 34 34 36 36 37 37
32 30 29 27 27 27 29 29 30 29 32 32 32 29 28 27 27 28 27 30 33 35 34 38 42 41 38 37 38 38 38 37 36 36 37 38 36 33 31 28 26 24 26 28 31 34 35 35 35
31 33 32 29 26 29 28 31 31 30 33 35 35 28 30 31 28 28 30 31 36 34 32 35 38 39 38 39 39 35 33 34 37 38 39 42 41 39 37 35 33 32 31 28 27 30 34 33 34
37 36 34 34 31 28 28 31 32 31 34 39 34 32 33 39 34 34 36 39 41 35 32 34 37 40 39 40 39 36 35 36 39 39 39 38 36 36 37 37 35 35 34 34 33 31 31 33 35
40 42 41 32 27 31 29 29 32 36 38 39 36 34 34 39 38 40 41 42 44 37 33 33 35 37 39 39 39 38 39 40 37 35 34 33 34 34 33 33 32 33 33 35 34 35 36 35 36
43 45 43 39 31 31 34 35 35 39 39 38 36 35 40 38 41 42 43 46 46 36 32 34 36 35 37 39 39 40 42 40 39 35 33 35 35 33 31 30 31 31 32 32 32 33 34 36 36
46 48 44 37 35 37 43 42 44 39 40 37 40 41 42 40 44 43 46 45 48 34 32 35 37 36 35 38 40 42 42 38 37 35 33 32 32 30 30 30 30 29 30 31 31 31 31 34 34
55 54 47 40 43 45 48 48 46 47 46 41 45 46 44 42 45 46 45 47 44 31 33 36 37 41 37 38 37 36 34 35 35 35 33 32 30 31 29 31 30 29 29 27 26 30 32 31 35
61 61 55 49 41 53 55 55 51 45 49 35 37 43 42 43 44 46 47 48 44 34 35 37 39 37 37 30 28 31 34 36 35 35 37 32 31 31 30 30 28 29 29 30 29 28 30 31 33
55 55 52 48 44 50 50 56 50 47 45 37 41 42 42 44 41 44 45 47 41 36 35 36 37 37 32 28 27 31 35 37 37 37 35 32 31 31 32 29 28 27 28 29 28 27 26 27 30
56 58 54 53 46 49 53 55 54 46 40 38 43 40 42 41 44 47 45 43 35 34 36 38 38 34 29 26 27 32 35 38 38 36 33 31 30 32 29 28 29 30 29 29 30 30 29 29 30
63 61 61 54 52 50 47 54 50 45 44 42 41 41 40 42 46 44 40 31 29 33 35 36 37 36 31 31 32 33 36 38 38 36 33 32 30 32 29 27 26 26 26 28 27 28 29 29 27
62 63 64 60 55 52 52 54 43 43 42 43 43 42 41 45 43 36 31 28 28 29 32 34 36 34 30 35 42 36 36 38 37 37 34 32 30 31 29 28 28 26 25 26 27 27 28 27 26
59 52 57 61 60 61 56 51 45 45 44 47 46 44 41 45 36 31 28 26 28 28 31 32 33 34 30 39 33 33 35 37 37 36 34 32 31 30 30 30 29 30 29 29 30 30 29 27 25
54 62 57 56 52 60 54 47 49 50 54 50 49 45 43 41 26 27 21 25 24 32 30 32 33 36 31 33 37 36 35 37 36 35 33 32 31 31 32 32 30 30 28 28 30 31 27 27 27
58 59 57 54 55 61 58 52 52 57 58 48 46 50 40 37 24 20 21 24 28 32 29 30 34 29 31 35 35 37 35 36 34 33 32 31 30 33 32 31 30 28 26 26 27 36 28 21 23
52 52 53 50 50 54 55 51 50 55 57 49 47 43 37 30 22 18 20 24 31 30 30 31 29 30 32 32 34 34 34 33 32 32 28 31 32 32 30 28 28 26 22 19 15 13 14 18 21
48 46 47 44 45 51 44 49 44 49 53 44 43 37 35 24 23 18 21 26 29 28 31 30 28 29 30 31 32 30 30 29 31 28 30 30 31 28 26 25 24 15 14 15 13 12 11 14 16
48 45 44 40 41 47 44 53 47 43 36 36 33 33 27 24 21 19 26 29 21 26 31 29 26 26 26 27 26 28 28 28 29 26 28 29 27 24 23 15 13 14 13 12 9 7 7 8 8
51 52 44 41 43 48 50 54 42 34 32 28 25 24 26 22 19 22 27 20 21 28 27 24 25 24 23 23 24 26 24 26 24 25 26 29 26 21 13 11 11 11 10 5 7 7 8 8 7
50 49 42 45 44 50 42 43 40 24 15 20 22 26 22 21 20 26 20 20 24 27 23 22 22 21 21 20 23 20 22 21 22 24 26 22 20 13 11 10 6 1 9 12 12 9 8 8 10
58 55 50 49 49 48 39 39 30 19 15 19 22 19 17 19 21 20 17 21 25 23 20 17 18 17 17 19 17 19 17 19 20 21 19 18 14 11 10 4 3 12 12 11 10 8 7 8 11
59 55 53 51 47 38 33 33 8 19 17 17 15 14 18 18 21 18 18 21 23 18 15 15 14 14 16 14 16 14 15 16 18 18 20 14 8 9 6 3 9 11 9 9 9 9 10 11 12
60 55 46 46 44 35 25 22 19 17 14 9 12 10 13 19 19 19 18 21 16 13 12 14 11 15 12 12 10 12 14 15 15 17 16 8 7 7 4 7 9 9 10 12 11 10 9 10 10
58 46 49 51 47 44 30 18 24 15 12 12 11 12 16 19 20 17 19 18 11 11 12 10 11 11 10 8 8 12 14 16 13 15 9 5 8 6 7 10 10 9 12 16 13 12 12 8 6
61 56 50 47 45 36 27 16 18 15 17 11 10 17 18 22 21 19 20 14 10 9 10 6 9 7 9 11 10 11 13 15 9 11 6 7 8 9 10 8 8 10 15 16 14 8 5 11 11
56 53 51 48 50 41 22 18 21 20 15 12 15 15 18 22 18 21 19 10 9 8 4 5 6 6 9 11 11 9 13 10 8 7 6 6 8 10 14 9 8 8 14 14 13 9 11 9 13
Wind_Direction
255 260 260 266 272 283 292 287 290 302 311 315 320 325 318 306 304 298 299 300 300 302 301 301 301 305 304 303 304 303 304 302 302 301 298 292 288 283 279 276 272 266 262 260 257 255 255 251 249
250 258 260 262 264 272 277 281 288 294 304 307 312 317 315 306 303 302 297 298 302 302 298 299 301 302 306 306 307 307 309 307 307 304 300 295 292 291 286 280 271 267 263 262 260 257 253 251 248
251 257 259 255 260 267 263 275 285 293 297 303 308 313 313 307 303 297 295 296 306 308 302 303 301 303 307 309 310 312 314 312 307 301 301 302 294 288 288 287 277 274 269 263 262 260 256 254 249
249 249 253 251 257 263 263 273 280 289 291 298 299 304 307 299 295 289 286 305 311 298 296 298 299 304 305 310 313 314 314 310 306 303 299 297 293 294 288 289 282 277 276 268 268 267 262 259 256
242 246 250 247 257 260 263 267 276 283 288 293 299 300 304 295 298 295 295 301 312 304 299 297 299 301 302 308 312 310 307 308 304 298 298 299 300 300 298 293 291 287 277 270 270 272 269 261 258
242 245 248 250 255 259 265 270 277 282 284 289 294 296 299 299 294 299 299 304 323 307 298 296 296 298 303 310 311 308 308 304 300 297 296 297 297 297 298 297 294 291 289 281 270 259 264 266 260
245 246 248 251 251 256 264 269 275 282 285 288 292 298 294 298 304 298 305 310 316 307 295 292 296 299 305 309 309 308 313 308 302 299 299 297 296 294 290 291 291 288 286 282 275 266 260 259 261
245 248 245 248 249 247 252 269 275 278 281 287 292 298 292 298 304 300 299 305 314 307 292 290 294 298 303 306 306 309 313 311 308 307 304 301 301 297 294 290 288 284 280 277 273 268 264 258 255
247 251 250 244 246 251 249 254 264 275 278 282 294 295 290 296 301 297 300 307 312 298 286 285 287 295 298 302 303 307 312 313 309 306 305 305 302 298 293 290 289 286 280 275 271 267 263 259 256
248 256 259 248 239 242 251 248 261 262 267 273 286 290 287 293 295 297 303 307 306 288 280 282 289 289 293 296 301 306 308 308 305 304 307 305 300 295 293 291 289 282 280 280 273 270 262 255 252
254 253 266 256 246 248 246 251 262 263 263 264 272 277 284 289 290 292 297 305 305 277 277 284 290 289 287 293 302 305 308 309 304 305 306 305 298 295 293 293 290 284 284 275 273 265 263 258 250
257 254 257 256 253 249 249 250 256 263 271 274 275 277 275 280 288 293 299 302 301 273 270 280 282 283 284 296 305 311 310 311 309 307 308 306 298 297 296 297 290 287 282 274 280 269 258 254 250
254 253 257 255 247 244 251 248 259 258 267 272 274 273 276 281 289 293 293 296 294 272 263 278 280 280 284 291 305 308 313 312 309 311 311 305 301 301 301 296 290 286 285 279 280 271 265 262 259
257 258 257 254 247 246 250 255 259 259 263 264 271 276 279 285 294 293 296 293 285 271 270 277 281 280 281 291 299 301 309 309 310 312 311 306 304 305 302 300 295 286 286 284 276 270 262 268 263
257 257 262 254 255 253 258 255 254 263 260 266 270 276 281 282 287 295 295 287 284 275 274 270 282 279 286 288 290 299 307 308 310 313 309 305 305 308 305 300 304 298 289 286 276 271 264 273 261
257 258 259 263 264 261 260 259 266 267 264 267 273 277 279 280 286 295 283 275 271 273 272 275 279 284 290 288 285 295 304 305 309 310 305 304 306 307 302 301 297 295 294 286 279 277 277 274 263
256 260 259 259 262 266 260 267 267 268 264 266 274 281 281 282 293 281 278 273 276 276 275 276 272 277 283 284 317 299 302 304 308 305 305 305 307 303 300 302 297 299 293 286 280 278 276 270 261
257 258 261 262 263 269 272 264 268 270 270 266 274 278 279 282 287 278 277 279 273 274 279 276 275 278 286 288 296 299 299 304 305 305 305 308 303 303 304 303 304 299 294 290 278 274 269 262 255
256 260 263 268 267 268 275 270 266 271 266 265 270 272 278 282 270 268 268 278 273 276 280 277 280 282 286 289 293 297 299 303 304 305 307 306 305 305 305 305 304 299 295 289 277 272 253 250 252
252 253 256 263 267 270 269 269 270 270 270 267 267 270 270 275 257 256 272 279 274 284 280 277 282 280 278 282 290 295 300 302 304 306 307 306 308 311 308 304 302 302 294 284 284 270 262 255 253
248 256 255 261 264 270 269 269 265 263 265 269 266 267 263 256 243 255 273 271 277 280 278 279 279 278 278 283 290 297 299 301 305 305 309 312 314 309 307 307 304 300 294 287 279 262 253 255 249
243 246 249 258 261 261 270 273 264 264 264 262 264 260 253 237 231 257 267 265 274 275 279 277 276 280 282 287 295 299 301 302 305 305 311 316 315 314 308 306 307 302 295 286 261 238 228 228 222
241 245 250 253 253 262 264 267 270 261 254 260 260 239 228 221 232 261 260 263 265 275 282 276 284 285 293 297 301 302 303 306 310 312 314 314 318 320 320 318 316 312 299 253 171 169 179 179 183
237 243 247 250 249 256 263 261 265 258 242 240 223 218 222 220 243 255 255 254 264 279 277 276 290 293 294 301 303 308 307 313 318 321 315 322 327 335 333 329 339 341 120 129 138 143 156 162 165
228 233 238 240 244 255 266 273 288 233 205 213 213 219 221 226 245 247 249 260 272 282 276 288 292 296 303 304 310 312 316 321 328 324 330 336 339 347 340 2 121 128 127 126 130 140 144 163 165
226 228 231 237 243 259 267 266 195 193 206 219 207 218 228 238 241 243 255 267 276 273 281 298 298 304 304 314 318 322 326 330 328 337 335 336 358 2 7 113 148 140 120 111 115 123 134 134 149
220 223 226 234 242 248 259 265 193 220 205 193 200 178 214 230 233 242 262 272 265 275 285 300 302 307 313 317 326 333 337 335 341 349 354 359 26 25 96 123 121 125 118 115 114 125 137 146 159
218 222 220 228 233 243 244 259 186 213 197 207 202 198 216 220 228 244 266 265 268 282 290 295 306 308 330 337 333 334 334 340 349 358 6 33 54 66 98 123 130 134 127 123 118 135 130 154 128
209 210 215 223 232 240 237 225 190 213 210 203 175 197 210 218 233 251 269 259 280 274 292 296 307 342 4 344 333 327 340 343 359 6 23 60 76 94 100 122 130 135 135 135 130 141 152 103 134
209 212 215 220 223 225 227 203 200 218 218 205 185 199 217 234 246 255 258 254 261 282 271 303 322 345 342 341 337 332 343 359 26 19 38 74 90 110 113 113 117 137 150 152 150 136 130 123 119
Height
5899 5900 5901 5902 5906 5903 5902 5902 5901 5900 5900 5900 5899 5899 5898 5895 5892 5894 5888 5884 5881 5879 5874 5870 5869 5869 5866 5864 5863 5861 5858 5855 5853 5850 5848 5846 5844 5843 5842 5842 5843 5844 5844 5844 5844 5844 5845 5846 5847
5896 5896 5899 5899 5901 5899 5898 5897 5897 5896 5896 5897 5896 5895 5894 5892 5889 5887 5883 5880 5877 5874 5870 5867 5865 5863 5862 5860 5857 5855 5853 5851 5849 5846 5843 5840 5838 5836 5835 5834 5834 5835 5836 5836 5837 5838 5838 5839 5841
5892 5893 5896 5896 5897 5898 5900 5895 5892 5893 5893 5894 5893 5892 5890 5887 5886 5883 5880 5877 5873 5871 5867 5863 5859 5858 5857 5855 5852 5848 5847 5845 5843 5841 5838 5836 5834 5832 5829 5827 5827 5828 5828 5828 5829 5830 5831 5833 5834
5889 5890 5891 5893 5893 5893 5893 5891 5889 5889 5888 5890 5891 5889 5888 5883 5881 5879 5877 5874 5871 5868 5863 5858 5855 5853 5851 5851 5847 5843 5840 5838 5837 5835 5833 5831 5829 5827 5826 5823 5821 5820 5820 5820 5821 5822 5824 5824 5827
5884 5885 5885 5889 5889 5888 5887 5887 5886 5885 5884 5885 5885 5885 5883 5879 5877 5875 5873 5871 5868 5863 5859 5855 5851 5849 5847 5846 5843 5840 5837 5834 5831 5829 5826 5824 5822 5820 5819 5817 5816 5815 5815 5814 5813 5813 5814 5816 5818
5878 5880 5882 5885 5886 5883 5884 5881 5880 5880 5880 5880 5881 5881 5879 5873 5873 5871 5868 5866 5864 5859 5855 5852 5847 5845 5843 5842 5839 5836 5834 5830 5827 5823 5820 5817 5815 5812 5810 5809 5808 5807 5807 5807 5807 5807 5807 5807 5809
5873 5873 5876 5879 5882 5881 5878 5877 5876 5875 5874 5873 5875 5876 5874 5867 5868 5865 5862 5860 5858 5854 5851 5847 5843 5840 5839 5837 5834 5831 5829 5825 5821 5817 5814 5811 5807 5805 5803 5801 5800 5799 5798 5797 5798 5799 5800 5801 5801
5866 5866 5868 5873 5877 5878 5875 5872 5870 5869 5869 5869 5869 5869 5867 5861 5861 5859 5857 5855 5852 5849 5846 5842 5839 5836 5833 5832 5829 5827 5823 5820 5815 5811 5807 5803 5800 5798 5796 5794 5793 5792 5791 5790 5789 5789 5790 5792 5795
5859 5857 5860 5866 5872 5874 5869 5869 5865 5863 5863 5863 5862 5863 5858 5858 5855 5852 5851 5849 5847 5844 5840 5837 5835 5831 5828 5827 5824 5820 5818 5814 5809 5805 5801 5796 5793 5791 5789 5787 5785 5784 5782 5781 5780 5780 5782 5783 5785
5851 5852 5854 5864 5863 5864 5861 5862 5857 5858 5858 5860 5858 5857 5853 5852 5849 5846 5844 5844 5843 5838 5834 5832 5830 5827 5824 5821 5819 5815 5813 5808 5804 5800 5796 5791 5788 5785 5783 5781 5779 5778 5776 5774 5773 5772 5772 5773 5776
5845 5842 5851 5854 5856 5855 5853 5853 5853 5851 5851 5856 5855 5851 5848 5846 5843 5841 5841 5839 5837 5832 5830 5828 5825 5822 5820 5817 5814 5811 5807 5803 5798 5794 5790 5786 5782 5779 5776 5774 5772 5770 5769 5767 5766 5765 5765 5766 5767
5832 5837 5838 5843 5848 5842 5841 5846 5842 5847 5844 5853 5846 5842 5843 5842 5838 5837 5835 5834 5831 5828 5825 5823 5820 5817 5815 5812 5810 5806 5801 5797 5792 5788 5784 5780 5776 5773 5770 5767 5765 5762 5760 5758 5758 5757 5757 5758 5760
5820 5823 5827 5831 5833 5830 5831 5832 5837 5838 5840 5845 5837 5836 5835 5833 5832 5832 5830 5828 5825 5823 5819 5817 5815 5812 5811 5807 5805 5800 5796 5792 5787 5782 5778 5774 5770 5766 5763 5760 5757 5755 5752 5750 5749 5749 5749 5750 5750
5814 5811 5814 5816 5821 5823 5822 5824 5828 5833 5836 5835 5828 5829 5828 5825 5825 5822 5823 5820 5817 5817 5814 5811 5811 5808 5805 5802 5799 5795 5790 5786 5781 5776 5772 5768 5764 5760 5755 5752 5749 5747 5745 5743 5741 5741 5741 5741 5741
5797 5799 5801 5806 5811 5815 5819 5810 5818 5824 5826 5824 5822 5820 5820 5819 5817 5815 5814 5812 5811 5810 5809 5807 5806 5803 5800 5797 5793 5789 5784 5779 5775 5771 5767 5762 5757 5753 5749 5745 5742 5739 5737 5735 5733 5733 5733 5733 5733
5786 5789 5789 5797 5801 5806 5808 5801 5814 5815 5815 5814 5812 5813 5813 5810 5809 5809 5806 5805 5804 5804 5803 5803 5800 5798 5796 5792 5787 5784 5778 5774 5769 5765 5761 5756 5751 5747 5742 5738 5735 5732 5730 5728 5727 5726 5725 5725 5725
5776 5778 5782 5787 5791 5791 5796 5796 5806 5806 5806 5804 5804 5804 5803 5801 5805 5801 5799 5798 5799 5799 5798 5797 5794 5792 5790 5786 5779 5776 5773 5768 5763 5759 5754 5749 5744 5740 5735 5731 5728 5724 5722 5720 5718 5718 5717 5716 5717
5770 5767 5775 5779 5785 5779 5784 5787 5792 5795 5792 5793 5794 5794 5795 5795 5796 5794 5794 5793 5794 5793 5792 5790 5788 5786 5783 5781 5776 5771 5767 5761 5756 5752 5748 5742 5737 5732 5727 5723 5719 5716 5713 5711 5709 5709 5709 5708 5709
5763 5764 5767 5772 5776 5772 5771 5773 5779 5780 5777 5783 5784 5783 5788 5788 5789 5788 5788 5788 5788 5787 5786 5784 5782 5779 5777 5775 5770 5765 5760 5755 5750 5746 5740 5735 5730 5725 5720 5716 5712 5708 5705 5703 5702 5699 5697 5699 5701
5753 5756 5758 5765 5766 5761 5760 5762 5767 5767 5767 5771 5773 5777 5779 5780 5782 5781 5782 5783 5782 5782 5781 5778 5776 5773 5770 5767 5763 5759 5754 5749 5744 5739 5734 5728 5723 5717 5712 5708 5705 5701 5698 5696 5694 5692 5692 5694 5695
5744 5747 5753 5758 5758 5751 5753 5747 5755 5757 5756 5764 5765 5769 5770 5773 5774 5776 5777 5777 5777 5777 5775 5773 5770 5767 5764 5761 5757 5752 5748 5744 5739 5733 5727 5722 5716 5710 5706 5702 5698 5695 5693 5692 5690 5689 5689 5690 5690
5734 5740 5745 5749 5747 5744 5748 5735 5744 5748 5752 5754 5758 5760 5764 5766 5768 5770 5771 5771 5772 5772 5769 5767 5764 5761 5757 5754 5750 5746 5742 5738 5733 5727 5722 5716 5710 5705 5701 5697 5694 5692 5690 5689 5688 5687 5687 5688 5688
5725 5730 5738 5742 5738 5735 5736 5729 5735 5739 5744 5747 5750 5753 5757 5759 5762 5765 5765 5767 5768 5766 5764 5760 5758 5754 5751 5748 5744 5741 5737 5732 5726 5722 5717 5711 5705 5701 5697 5694 5692 5689 5687 5686 5686 5686 5688 5688 5688
5718 5723 5730 5731 5729 5721 5728 5727 5728 5738 5735 5737 5741 5746 5751 5754 5757 5759 5761 5763 5762 5760 5757 5755 5751 5748 5746 5743 5739 5736 5731 5726 5722 5717 5712 5706 5702 5698 5695 5692 5691 5689 5688 5687 5687 5688 5689 5689 5690
5703 5712 5717 5720 5717 5715 5724 5723 5728 5728 5730 5733 5737 5743 5747 5750 5753 5755 5757 5759 5757 5754 5752 5749 5746 5744 5741 5738 5735 5731 5726 5722 5718 5713 5708 5704 5700 5697 5694 5693 5692 5691 5691 5691 5691 5691 5691 5692 5693
5691 5700 5707 5710 5715 5719 5717 5717 5727 5725 5726 5731 5735 5738 5742 5746 5748 5751 5754 5753 5752 5750 5747 5745 5742 5740 5737 5734 5730 5727 5723 5719 5715 5710 5706 5702 5699 5697 5695 5694 5694 5694 5695 5694 5694 5694 5694 5695 5695
5681 5688 5706 5707 5708 5712 5715 5719 5726 5725 5727 5730 5732 5735 5739 5742 5746 5749 5750 5749 5747 5745 5743 5741 5738 5736 5733 5730 5727 5725 5720 5717 5712 5708 5705 5702 5699 5697 5696 5695 5696 5697 5696 5696 5697 5697 5698 5699 5698
5671 5690 5692 5696 5701 5703 5712 5718 5721 5722 5725 5727 5730 5733 5736 5740 5743 5746 5746 5745 5743 5741 5740 5738 5736 5733 5730 5727 5725 5722 5719 5715 5711 5708 5706 5702 5701 5699 5698 5697 5698 5699 5698 5698 5699 5701 5701 5702 5702
5658 5668 5680 5691 5697 5700 5707 5714 5718 5717 5721 5725 5728 5731 5734 5737 5740 5742 5741 5741 5739 5738 5736 5735 5733 5731 5728 5725 5723 5720 5716 5713 5710 5708 5706 5703 5702 5701 5700 5701 5701 5701 5701 5701 5703 5704 5705 5704 5705
5653 5665 5674 5681 5685 5694 5704 5712 5713 5716 5719 5722 5724 5729 5733 5735 5738 5738 5738 5737 5737 5736 5734 5733 5731 5729 5726 5723 5721 5718 5715 5712 5709 5708 5707 5705 5704 5702 5702 5703 5704 5704 5704 5704 5706 5707 5708 5708 5707